CW9540 Weather Reports


Display with metric or nautical units.
time (UTC)temp
F
wind
direction
speed
MPH
gust
MPH
rain 1hr
in
rain 24hr
in
rain mn
in
humidity
%
barometer
mb
20260503031550 42 202 2.0 4.0 0.00 0.01 0.01 70 1013.8
20260503030503 42 246 2.0 3.0 0.00 0.01 0.01 72 1013.2
20260503030113 42 178 1.0 3.0 0.00 0.01 0.01 71 1013.8
20260503030004 42 210 2.0 3.0 0.00 0.01 0.01 72 1013.3
20260503025503 42 219 1.0 3.0 0.00 0.01 0.01 72 1013.3
20260503025003 42 206 2.0 3.0 0.00 0.01 0.01 72 1013.3
20260503024550 42 197 1.0 3.0 0.00 0.02 0.01 72 1013.9
20260503024504 42 216 1.0 3.0 0.00 0.01 0.01 72 1013.4
20260503024004 42 208 1.0 3.0 0.00 0.01 0.01 72 1013.4
20260503023503 42 199 2.0 3.0 0.00 0.01 0.01 71 1013.4
20260503023048 42 190 1.0 3.0 0.00 0.02 0.01 71 1014.0
20260503023004 42 194 1.0 3.0 0.00 0.01 0.01 72 1013.4
20260503022503 43 227 2.0 3.0 0.00 0.01 0.01 72 1013.5
20260503022003 43 228 1.0 2.0 0.00 0.01 0.01 71 1013.6
20260503021548 42 206 1.0 3.0 0.00 0.02 0.01 70 1014.1
20260503021003 43 206 1.0 2.0 0.00 0.02 0.01 71 1013.6
20260503020504 43 226 1.0 3.0 0.00 0.02 0.01 71 1013.6
20260503020045 42 206 1.0 4.0 0.00 0.02 0.01 70 1014.0
20260503020003 43 216 2.0 3.0 0.00 0.02 0.01 70 1013.6
20260503015504 43 221 1.0 3.0 0.00 0.02 0.01 70 1013.6
20260503014601 43 238 2.0 4.0 0.00 0.02 0.01 69 1014.0
20260503014503 43 231 2.0 3.0 0.00 0.02 0.01 70 1013.5
20260503014004 43 220 1.0 3.0 0.00 0.02 0.01 70 1013.6
20260503013503 43 240 2.0 3.0 0.00 0.02 0.01 70 1013.5
20260503013052 43 229 1.0 3.0 0.00 0.02 0.01 70 1014.0
20260503013004 43 213 1.0 3.0 0.00 0.02 0.01 70 1013.5
20260503012504 43 216 2.0 3.0 0.00 0.02 0.01 70 1013.4
20260503011554 43 216 1.0 5.0 0.00 0.02 0.01 69 1014.0
20260503011504 43 227 2.0 5.0 0.00 0.02 0.01 69 1013.5
20260503010504 43 209 2.0 6.0 0.00 0.02 0.01 70 1013.4
20260503010104 43 223 2.0 5.0 0.00 0.02 0.01 69 1014.0
20260503010004 43 235 2.0 3.0 0.00 0.02 0.01 70 1013.4
20260503005504 43 227 2.0 5.0 0.00 0.02 0.01 69 1013.3
20260503005003 43 228 1.0 3.0 0.00 0.02 0.01 70 1013.3
20260503004544 43 0 2.0 5.0 0.00 0.02 0.01 70 1013.9
20260503004503 43 225 3.0 5.0 0.00 0.02 0.01 69 1013.3
20260503004004 43 244 2.0 3.0 0.00 0.02 0.01 70 1013.2
20260503003056 43 178 1.0 5.0 0.00 0.02 0.01 70 1013.7
20260503003004 43 262 2.0 3.0 0.00 0.02 0.01 70 1013.1
20260503002506 43 243 1.0 3.0 0.00 0.02 0.01 70 1013.0
20260503002004 43 232 3.0 5.0 0.00 0.02 0.01 69 1013.0
20260503001544 43 231 2.0 4.0 0.00 0.02 0.01 68 1013.6
20260503001503 43 252 2.0 3.0 0.00 0.02 0.01 69 1013.0
20260503000504 43 224 2.0 5.0 0.00 0.02 0.01 69 1013.0
20260503000053 43 218 1.0 3.0 0.00 0.02 0.01 69 1013.6
20260503000004 43 255 2.0 3.0 0.00 0.02 0.01 69 1013.0
20260502235504 43 211 1.0 3.0 0.00 0.02 0.01 71 1013.0
20260502235004 44 262 1.0 3.0 0.00 0.02 0.01 70 1013.0
20260502234547 43 245 1.0 4.0 0.00 0.02 0.01 70 1013.6
20260502234504 44 242 1.0 3.0 0.00 0.02 0.01 69 1013.0
20260502233504 44 251 1.0 2.0 0.00 0.02 0.01 69 1012.9
20260502233047 43 250 1.0 3.0 0.00 0.02 0.01 69 1013.5
20260502233003 44 246 2.0 3.0 0.00 0.02 0.01 69 1012.9
20260502232503 44 5 2.0 3.0 0.00 0.02 0.01 69 1012.9
20260502232004 44 240 2.0 5.0 0.00 0.02 0.01 69 1012.8
20260502231544 43 235 2.0 8.0 0.00 0.02 0.01 68 1013.4
20260502231503 44 242 2.0 5.0 0.00 0.02 0.01 69 1012.8
20260502230503 44 230 5.0 6.0 0.00 0.02 0.01 68 1012.7
20260502230045 43 171 3.0 8.0 0.00 0.02 0.01 67 1013.4
20260502225504 44 261 2.0 5.0 0.00 0.02 0.01 70 1012.7
20260502225004 44 269 3.0 6.0 0.00 0.02 0.01 69 1012.7
20260502224548 44 135 3.0 8.0 0.00 0.03 0.01 68 1013.3
20260502224503 44 217 3.0 8.0 0.00 0.02 0.01 68 1012.6
20260502224003 45 235 2.0 6.0 0.01 0.02 0.01 68 1012.6
20260502223504 45 33 2.0 3.0 0.01 0.02 0.01 71 1012.6
20260502223048 44 46 1.0 5.0 0.01 0.03 0.01 70 1013.2
20260502223004 45 273 1.0 3.0 0.01 0.02 0.01 70 1012.6
20260502222504 45 241 3.0 5.0 0.01 0.02 0.01 70 1012.6
20260502222004 45 247 2.0 3.0 0.01 0.03 0.01 74 1012.6
20260502221546 44 232 0.0 2.0 0.01 0.03 0.01 76 1013.2
20260502221504 45 150 1.0 2.0 0.01 0.03 0.01 77 1012.6
20260502221003 44 230 0.0 2.0 0.01 0.03 0.01 77 1012.6
20260502220504 44 85 1.0 2.0 0.01 0.03 0.01 77 1012.6
20260502220048 44 117 0.0 2.0 0.01 0.03 0.01 78 1013.2
20260502220003 44 100 0.0 2.0 0.01 0.03 0.01 78 1012.6
20260502215503 44 90 1.0 2.0 0.01 0.03 0.01 77 1012.6
20260502215003 44 113 0.0 1.0 0.01 0.03 0.01 78 1012.6
20260502214554 44 0 0.0 1.0 0.01 0.04 0.01 77 1013.2
20260502214504 44 97 0.0 1.0 0.01 0.03 0.01 77 1012.6
20260502214003 44 86 1.0 1.0 0.00 0.02 0.00 75 1012.6
20260502213503 44 83 0.0 2.0 0.00 0.02 0.00 73 1012.5
20260502213049 44 56 1.0 7.0 0.00 0.03 0.00 70 1013.2
20260502213004 44 40 1.0 2.0 0.00 0.03 0.00 71 1012.5
20260502212503 45 31 1.0 3.0 0.00 0.03 0.00 68 1012.6
20260502212003 45 248 3.0 7.0 0.00 0.03 0.00 64 1012.6
20260502211545 45 290 0.0 3.0 0.00 0.03 0.00 63 1013.1
20260502211504 46 332 0.0 2.0 0.00 0.03 0.00 64 1012.5
20260502211004 46 331 0.0 3.0 0.00 0.03 0.00 62 1012.4
20260502210503 46 148 2.0 3.0 0.00 0.03 0.00 61 1012.3
20260502210047 46 1 1.0 4.0 0.00 0.03 0.00 61 1013.0
20260502210003 46 300 2.0 3.0 0.00 0.03 0.00 62 1012.4
20260502205503 46 227 1.0 3.0 0.00 0.03 0.00 62 1012.4
20260502205004 46 273 2.0 3.0 0.00 0.03 0.00 61 1012.4
20260502204559 45 219 2.0 6.0 0.00 0.04 0.00 60 1013.0
20260502204503 46 209 3.0 5.0 0.00 0.04 0.00 61 1012.5
20260502204004 46 260 3.0 6.0 0.00 0.04 0.00 63 1012.5
20260502203504 46 307 1.0 3.0 0.00 0.04 0.00 62 1012.5
20260502203110 45 1 1.0 5.0 0.00 0.04 0.00 62 1013.1
20260502203004 46 350 2.0 5.0 0.00 0.04 0.00 63 1012.5
20260502201550 45 269 1.0 6.0 0.00 0.04 0.00 62 1013.1
20260502201503 46 299 2.0 5.0 0.00 0.04 0.00 62 1012.5
20260502201004 46 283 2.0 5.0 0.00 0.04 0.00 61 1012.6
20260502200503 46 281 2.0 3.0 0.00 0.04 0.00 61 1012.6
20260502200049 46 331 2.0 5.0 0.00 0.04 0.00 58 1013.2
20260502200003 47 349 2.0 5.0 0.00 0.04 0.00 59 1012.6
20260502195504 47 6 2.0 3.0 0.00 0.04 0.00 59 1012.6
20260502195004 47 312 2.0 3.0 0.00 0.04 0.00 56 1012.6
20260502194553 46 252 2.0 7.0 0.00 0.04 0.00 56 1013.2
20260502194004 47 0 2.0 3.0 0.00 0.04 0.00 56 1012.6
20260502193504 47 257 4.0 9.0 0.00 0.04 0.00 53 1012.5
20260502193050 46 252 4.0 13.0 0.00 0.04 0.00 54 1013.2
20260502193003 47 238 5.0 13.0 0.00 0.04 0.00 54 1012.6
20260502192503 47 319 3.0 6.0 0.00 0.04 0.00 55 1012.6
20260502192004 47 353 2.0 6.0 0.00 0.04 0.00 52 1012.6
20260502191552 47 252 2.0 6.0 0.00 0.04 0.00 53 1013.3
20260502191503 47 300 2.0 5.0 0.00 0.04 0.00 53 1012.7
20260502191004 48 315 3.0 6.0 0.00 0.04 0.00 52 1012.6
20260502190504 48 22 2.0 3.0 0.00 0.04 0.00 54 1012.6
20260502190047 47 269 1.0 4.0 0.00 0.04 0.00 54 1013.2
20260502190004 47 336 1.0 3.0 0.00 0.04 0.00 54 1012.6
20260502185503 48 349 2.0 3.0 0.00 0.04 0.00 61 1012.7
20260502185003 48 5 3.0 5.0 0.00 0.04 0.00 50 1012.6
20260502184547 47 340 1.0 6.0 0.00 0.04 0.00 48 1013.2
20260502184503 48 103 1.0 6.0 0.00 0.04 0.00 48 1012.6
20260502183503 48 16 1.0 6.0 0.00 0.04 0.00 48 1012.6
20260502183047 48 13 3.0 10.0 0.00 0.04 0.00 47 1013.2
20260502182504 48 269 3.0 9.0 0.00 0.04 0.00 46 1012.6
20260502182004 49 260 4.0 8.0 0.00 0.04 0.00 45 1012.5
20260502181604 49 226 3.0 9.0 0.00 0.04 0.00 47 1013.1
20260502181504 50 195 3.0 9.0 0.00 0.04 0.00 47 1012.5
20260502181004 49 349 2.0 6.0 0.00 0.04 0.00 47 1012.4
20260502180503 49 352 4.0 10.0 0.00 0.04 0.00 46 1012.3
20260502170504 50 223 6.0 12.0 0.00 0.04 0.00 42 1012.3
20260502164004 48 333 4.0 10.0 0.00 0.04 0.00 44 1012.5
20260502163503 49 272 3.0 9.0 0.00 0.04 0.00 46 1012.6
20260502163050 48 284 3.0 9.0 0.00 0.04 0.00 47 1013.2
20260502163004 48 353 3.0 8.0 0.00 0.04 0.00 49 1012.6
20260502162504 48 321 3.0 7.0 0.00 0.04 0.00 46 1012.6
20260502162003 48 312 3.0 8.0 0.00 0.04 0.00 48 1012.6
20260502161553 47 310 3.0 10.0 0.00 0.04 0.00 45 1013.2
20260502161004 48 248 5.0 10.0 0.00 0.04 0.00 47 1012.6
20260502160503 47 352 6.0 12.0 0.00 0.04 0.00 46 1012.6
20260502152003 48 235 6.0 12.0 0.00 0.04 0.00 51 1012.7
20260502151601 47 284 4.0 11.0 0.00 0.04 0.00 50 1013.4
20260502151503 48 225 5.0 8.0 0.00 0.04 0.00 51 1012.9
20260502151004 47 232 6.0 12.0 0.00 0.04 0.00 52 1012.9
20260502150504 47 304 3.0 8.0 0.00 0.04 0.00 53 1012.8
20260502123504 41 291 3.0 7.0 0.00 0.04 0.00 77 1013.8
20260502123056 40 264 2.0 8.0 0.00 0.04 0.00 77 1014.4
20260502123004 41 231 2.0 8.0 0.00 0.04 0.00 77 1013.8
20260502122503 40 242 2.0 8.0 0.00 0.04 0.00 79 1013.7
20260502121556 39 305 3.0 7.0 0.00 0.04 0.00 77 1014.3
20260502121504 40 267 2.0 7.0 0.00 0.04 0.00 78 1013.8
20260502121004 40 280 3.0 7.0 0.00 0.04 0.00 79 1013.8
20260502120503 39 234 3.0 8.0 0.00 0.04 0.00 80 1013.8
20260502120105 39 212 2.0 6.0 0.00 0.04 0.00 79 1014.4
20260502115505 39 248 4.0 6.0 0.00 0.04 0.00 81 1013.9
20260502115004 39 214 2.0 7.0 0.00 0.04 0.00 82 1013.9
20260502114554 38 202 2.0 10.0 0.00 0.04 0.00 82 1014.4
20260502114004 39 240 6.0 10.0 0.00 0.04 0.00 81 1013.8
20260502113052 38 206 3.0 7.0 0.00 0.04 0.00 83 1014.3
20260502113004 38 256 4.0 7.0 0.00 0.04 0.00 83 1013.7
20260502112504 38 236 2.0 6.0 0.00 0.04 0.00 83 1013.7
20260502112004 38 235 3.0 6.0 0.00 0.04 0.00 84 1013.6
20260502111555 37 230 3.0 8.0 0.00 0.04 0.00 84 1014.2
20260502111004 38 232 2.0 3.0 0.00 0.04 0.00 86 1013.5
20260502110503 37 229 3.0 6.0 0.00 0.04 0.00 86 1013.5
20260502110059 37 236 1.0 4.0 0.00 0.04 0.00 86 1014.2
20260502110004 37 217 1.0 3.0 0.00 0.04 0.00 87 1013.5
20260502105503 37 245 2.0 3.0 0.00 0.04 0.00 87 1013.5
20260502105004 37 249 1.0 3.0 0.00 0.04 0.00 87 1013.3
20260502104550 36 250 1.0 5.0 0.00 0.04 0.00 87 1014.0
20260502104504 37 218 2.0 3.0 0.00 0.04 0.00 87 1013.3
20260502103503 37 221 2.0 3.0 0.00 0.04 0.00 87 1013.2
20260502103050 36 206 1.0 3.0 0.00 0.04 0.00 86 1013.8
20260502103004 37 208 1.0 3.0 0.00 0.04 0.00 86 1013.1
20260502102504 37 234 1.0 2.0 0.00 0.04 0.00 86 1013.0
20260502102003 37 207 2.0 3.0 0.00 0.04 0.00 86 1013.0
20260502101553 37 227 2.0 3.0 0.00 0.04 0.00 85 1013.7
20260502101503 37 208 2.0 3.0 0.00 0.04 0.00 86 1013.1
20260502101003 37 218 1.0 3.0 0.00 0.04 0.00 86 1013.0
20260502100504 37 240 1.0 3.0 0.00 0.04 0.00 85 1012.9
20260502091504 38 248 1.0 3.0 0.00 0.04 0.00 86 1012.6
20260502091003 38 257 2.0 5.0 0.00 0.04 0.00 86 1012.6
20260502090504 38 213 1.0 3.0 0.00 0.04 0.00 85 1012.5
20260502080106 40 308 0.0 3.0 0.00 0.04 0.00 83 1012.3
20260502070139 40 197 0.0 3.0 0.00 0.04 0.00 92 1012.1
20260502064557 41 223 0.0 2.0 0.00 0.04 0.00 92 1012.2
20260502063053 41 223 0.0 2.0 0.00 0.04 0.00 92 1012.1
20260502061551 41 223 0.0 1.0 0.00 0.04 0.00 92 1012.2
20260502060049 41 0 0.0 2.0 0.00 0.04 0.00 92 1012.3
20260502055004 41 182 1.0 1.0 0.00 0.04 0.00 92 1011.6
20260502054557 41 161 0.0 2.0 0.00 0.04 0.00 91 1012.3
20260502053049 41 206 1.0 2.0 0.00 0.04 0.00 92 1012.3
20260502051549 42 0 0.0 3.0 0.00 0.04 0.00 93 1012.3
20260502050050 42 190 1.0 3.0 0.00 0.04 0.00 93 1012.4
20260502044549 42 223 0.0 2.0 0.00 0.04 0.00 93 1012.3
20260502043052 42 0 0.0 4.0 0.00 0.04 0.00 93 1012.3
20260502041549 41 234 0.0 2.0 0.00 0.04 0.00 93 1012.3
20260502040058 41 178 1.0 2.0 0.00 0.04 0.00 93 1012.3
20260502034554 41 223 0.0 2.0 0.00 0.04 0.04 93 1012.3
20260502033050 41 0 0.0 1.0 0.00 0.04 0.04 92 1012.2